CW0062 Weather Reports


Display with metric or nautical units.
time (UTC)temp
F
wind
direction
speed
MPH
gust
MPH
rain 1hr
in
rain 24hr
in
rain mn
in
humidity
%
barometer
mb
20200120060705 39 30 0.0 1.0 0.00 0.00 0.00 72 1034.5
20200120060205 40 30 2.0 3.0 0.00 0.00 0.00 67 1034.4
20200120054705 40 30 1.0 2.0 0.00 0.00 0.00 70 1034.4
20200120054204 40 30 1.0 3.0 0.00 0.00 0.00 66 1034.4
20200120053704 40 30 2.0 3.0 0.00 0.00 0.00 66 1034.4
20200120053205 40 30 2.0 3.0 0.00 0.00 0.00 66 1034.3
20200120051705 39 30 2.0 3.0 0.00 0.00 0.00 70 1034.3
20200120051205 39 30 2.0 3.0 0.00 0.00 0.00 75 1034.3
20200120050704 38 30 1.0 2.0 0.00 0.00 0.00 77 1034.2
20200120044205 39 30 0.0 2.0 0.00 0.00 0.00 72 1034.2
20200120043704 39 30 1.0 2.0 0.00 0.00 0.00 71 1034.2
20200120041720 39 30 0.0 0.0 0.00 0.00 0.00 71 1034.1
20200120041204 40 30 0.0 1.0 0.00 0.00 0.00 73 1034.1
20200120040705 40 30 1.0 2.0 0.00 0.00 0.00 70 1034.1
20200120040204 40 30 0.0 1.0 0.00 0.00 0.00 72 1034.1
20200120034705 41 30 0.0 1.0 0.00 0.00 0.00 66 1034.3
20200120034205 41 30 1.0 2.0 0.00 0.00 0.00 65 1034.3
20200120033705 42 30 1.0 2.0 0.00 0.00 0.00 65 1034.2
20200120033205 42 30 1.0 3.0 0.00 0.00 0.00 59 1034.1
20200120031705 42 30 1.0 2.0 0.00 0.00 0.00 58 1033.9
20200120030705 41 30 0.0 1.0 0.00 0.00 0.00 64 1033.8
20200120030205 41 30 0.0 3.0 0.00 0.00 0.00 62 1033.8
20200120024205 42 30 0.0 1.0 0.00 0.00 0.00 65 1033.9
20200120023205 42 30 1.0 1.0 0.00 0.00 0.00 68 1033.8
20200120021705 42 30 0.0 0.0 0.00 0.00 0.00 64 1033.6
20200120021205 43 30 0.0 0.0 0.00 0.00 0.00 64 1033.5
20200120020705 42 30 0.0 0.0 0.00 0.00 0.00 63 1033.5
20200120013705 43 30 1.0 2.0 0.00 0.00 0.00 53 1033.4
20200120013205 43 30 1.0 2.0 0.00 0.00 0.00 52 1033.4
20200120011704 44 30 0.0 0.0 0.00 0.00 0.00 51 1033.3
20200120011205 46 30 0.0 1.0 0.00 0.00 0.00 45 1033.2
20200120010705 46 30 1.0 2.0 0.00 0.00 0.00 45 1033.3
20200120010205 46 30 2.0 3.0 0.00 0.00 0.00 46 1033.2
20200120004704 47 30 1.0 3.0 0.00 0.00 0.00 49 1032.9
20200120003204 47 30 2.0 5.0 0.00 0.00 0.00 43 1032.9
20200120001705 49 30 2.0 5.0 0.00 0.00 0.00 43 1032.7
20200120000705 50 30 2.0 5.0 0.00 0.00 0.00 37 1032.5
20200120000204 50 30 3.0 6.0 0.00 0.00 0.00 36 1032.4
20200119234705 51 26 5.0 8.0 0.00 0.00 0.00 35 1032.2
20200119234205 51 55 4.0 6.0 0.00 0.00 0.00 38 1032.1
20200119233705 51 346 3.0 5.0 0.00 0.00 0.00 37 1032.2
20200119233204 52 305 1.0 6.0 0.00 0.00 0.00 36 1032.1
20200119231705 53 336 3.0 7.0 0.00 0.00 0.00 30 1031.9
20200119231204 54 1 2.0 3.0 0.00 0.00 0.00 29 1031.9
20200119224204 54 1 2.0 5.0 0.00 0.00 0.00 31 1031.9
20200119223704 53 1 2.0 3.0 0.00 0.00 0.00 28 1032.0
20200119223205 54 1 4.0 6.0 0.00 0.00 0.00 29 1032.0
20200119220705 53 334 1.0 3.0 0.00 0.00 0.00 29 1032.3
20200119220205 53 337 1.0 9.0 0.00 0.00 0.00 28 1032.2
20200119214705 55 14 6.0 8.0 0.00 0.00 0.00 28 1032.2
20200119214205 55 312 4.0 7.0 0.00 0.00 0.00 27 1032.2
20200119213205 54 49 2.0 6.0 0.00 0.00 0.00 31 1032.1
20200119211704 54 140 2.0 6.0 0.00 0.00 0.00 28 1032.3
20200119210704 53 217 2.0 5.0 0.00 0.00 0.00 30 1032.4
20200119210205 53 213 5.0 8.0 0.00 0.00 0.00 30 1032.5
20200119204204 52 14 2.0 3.0 0.00 0.00 0.00 30 1032.8
20200119203205 53 339 2.0 9.0 0.00 0.00 0.00 31 1032.9
20200119201705 53 282 2.0 6.0 0.00 0.00 0.00 32 1033.1
20200119201204 52 298 3.0 7.0 0.00 0.00 0.00 30 1033.2
20200119200705 52 280 3.0 7.0 0.00 0.00 0.00 31 1033.3
20200119200204 52 292 3.0 8.0 0.00 0.00 0.00 32 1033.4
20200119194705 51 1 2.0 7.0 0.00 0.00 0.00 32 1033.9
20200119194204 51 3 5.0 8.0 0.00 0.00 0.00 32 1033.8
20200119193705 51 269 5.0 6.0 0.00 0.00 0.00 31 1033.9
20200119191705 50 262 3.0 7.0 0.00 0.00 0.00 33 1034.3
20200119191204 50 7 5.0 8.0 0.00 0.00 0.00 33 1034.4
20200119184204 49 151 2.0 3.0 0.00 0.00 0.00 36 1034.9
20200119183705 49 55 2.0 8.0 0.00 0.00 0.00 37 1035.1
20200119183205 49 287 3.0 9.0 0.00 0.00 0.00 38 1035.1
20200119181705 49 272 3.0 6.0 0.00 0.00 0.00 36 1035.4
20200119181205 49 247 3.0 7.0 0.00 0.00 0.00 36 1035.5
20200119180705 50 252 3.0 7.0 0.00 0.00 0.00 41 1035.6
20200119180204 48 182 1.0 9.0 0.00 0.00 0.00 38 1035.7
20200119174705 48 233 5.0 7.0 0.00 0.00 0.00 38 1035.9
20200119174205 48 288 2.0 6.0 0.00 0.00 0.00 44 1036.0
20200119173205 48 24 0.0 6.0 0.00 0.00 0.00 42 1036.2
20200119171204 46 263 2.0 7.0 0.00 0.00 0.00 42 1036.4
20200119170705 45 261 3.0 6.0 0.00 0.00 0.00 46 1036.5
20200119170205 45 324 3.0 6.0 0.00 0.00 0.00 46 1036.6
20200119163705 44 92 1.0 3.0 0.00 0.00 0.00 56 1036.5
20200119163204 44 92 1.0 5.0 0.00 0.00 0.00 56 1036.6
20200119161704 42 349 1.0 2.0 0.00 0.00 0.00 61 1036.5
20200119161204 42 349 0.0 2.0 0.00 0.00 0.00 64 1036.5
20200119154704 39 349 2.0 3.0 0.00 0.00 0.00 73 1036.3
20200119154204 38 349 2.0 3.0 0.00 0.00 0.00 75 1036.3
20200119153205 36 349 3.0 5.0 0.00 0.00 0.00 74 1036.3
20200119151205 35 349 2.0 3.0 0.00 0.00 0.00 78 1036.1
20200119150705 34 349 2.0 3.0 0.00 0.00 0.00 80 1036.1
20200119150204 33 349 3.0 6.0 0.00 0.00 0.00 79 1036.0
20200119144705 32 2 3.0 5.0 0.00 0.00 0.00 81 1035.8
20200119144204 32 3 2.0 3.0 0.00 0.00 0.00 83 1035.6
20200119143705 31 3 0.0 1.0 0.00 0.00 0.00 85 1035.6
20200119141704 28 3 0.0 2.0 0.00 0.00 0.00 91 1035.5
20200119141205 28 3 1.0 1.0 0.00 0.00 0.00 90 1035.4
20200119140704 28 3 0.0 2.0 0.00 0.00 0.00 90 1035.4
20200119140205 28 3 1.0 2.0 0.00 0.00 0.00 91 1035.3
20200119134704 26 3 0.0 0.0 0.00 0.00 0.00 90 1035.1
20200119134204 26 3 0.0 0.0 0.00 0.00 0.00 90 1035.1
20200119133705 26 3 0.0 0.0 0.00 0.00 0.00 90 1035.0
20200119133204 27 3 0.0 0.0 0.00 0.00 0.00 89 1035.0
20200119131204 27 3 0.0 0.0 0.00 0.00 0.00 88 1034.8
20200119130704 27 3 0.0 0.0 0.00 0.00 0.00 88 1034.6
20200119130205 28 3 0.0 0.0 0.00 0.00 0.00 87 1034.6
20200119123205 28 3 2.0 3.0 0.00 0.00 0.00 88 1034.2
20200119121705 27 3 2.0 5.0 0.00 0.00 0.00 90 1034.1
20200119121205 27 3 0.0 0.0 0.00 0.00 0.00 89 1034.1
20200119120204 28 3 0.0 2.0 0.00 0.00 0.00 89 1033.9
20200119114205 28 3 0.0 0.0 0.00 0.00 0.00 89 1033.4
20200119113205 28 3 2.0 3.0 0.00 0.00 0.00 89 1033.3
20200119111704 28 3 2.0 2.0 0.00 0.00 0.00 89 1033.3
20200119111205 28 3 2.0 3.0 0.00 0.00 0.00 89 1033.2
20200119110704 28 3 2.0 3.0 0.00 0.00 0.00 90 1033.3
20200119104704 28 3 1.0 2.0 0.00 0.00 0.00 90 1032.9
20200119103704 28 3 0.0 0.0 0.00 0.00 0.00 89 1033.1
20200119103205 28 3 0.0 0.0 0.00 0.00 0.00 89 1033.0
20200119101704 28 3 0.0 0.0 0.00 0.00 0.00 89 1032.9
20200119101205 29 3 0.0 1.0 0.00 0.00 0.00 90 1032.9
20200119100204 28 3 0.0 1.0 0.00 0.01 0.00 90 1032.8
20200119094705 28 3 1.0 2.0 0.00 0.01 0.00 89 1032.8
20200119094205 28 3 1.0 2.0 0.00 0.01 0.00 89 1032.8
20200119093705 28 3 0.0 1.0 0.00 0.01 0.00 88 1032.8
20200119091204 30 3 0.0 0.0 0.00 0.01 0.00 84 1032.8
20200119090205 31 3 0.0 3.0 0.00 0.01 0.00 83 1032.8
20200119084704 30 3 2.0 3.0 0.00 0.01 0.00 88 1032.8
20200119084205 30 3 1.0 2.0 0.00 0.01 0.00 89 1032.8
20200119083704 30 3 0.0 1.0 0.00 0.01 0.00 89 1032.9
20200119080205 30 3 1.0 2.0 0.00 0.01 0.00 89 1032.6
20200119074705 29 3 1.0 2.0 0.00 0.01 0.00 87 1032.5
20200119073705 30 3 1.0 2.0 0.00 0.01 0.00 87 1032.5
20200119073204 30 3 0.0 1.0 0.00 0.01 0.00 87 1032.5
20200119070705 30 3 0.0 0.0 0.00 0.01 0.00 84 1032.5
20200119064704 31 4 3.0 6.0 0.00 0.01 0.00 87 1032.5
20200119064205 30 21 0.0 2.0 0.00 0.01 0.00 86 1032.6
20200119063705 30 21 0.0 0.0 0.00 0.01 0.00 85 1032.5
20200119061704 31 21 0.0 0.0 0.00 0.01 0.00 82 1032.3
20200119061204 32 21 0.0 0.0 0.00 0.01 0.00 82 1032.3